QPF
0.00 0.01 0.01 0.01 0.01 0.02 0.03 0.02 0.02 0.01 0.01 0.01 0.01 0.01 0.02 0.02 0.01 0.02 0.02 0.01 0.01 0.02 0.04 0.04 0.05 0.05 0.06 0.07 0.07 0.05 0.06 0.07 0.07 0.07 0.05 0.05 0.05 0.05 0.06 0.07 0.08 0.07 0.07 0.08 0.09 0.07 0.08 0.09 0.10
0.00 0.00 0.00 0.01 0.02 0.04 0.03 0.03 0.02 0.02 0.01 0.01 0.01 0.01 0.01 0.01 0.01 0.01 0.01 0.01 0.01 0.01 0.03 0.06 0.06 0.07 0.06 0.06 0.05 0.06 0.07 0.05 0.06 0.07 0.08 0.06 0.07 0.05 0.06 0.08 0.08 0.08 0.07 0.07 0.06 0.05 0.04 0.04 0.05
0.00 0.00 0.00 0.01 0.02 0.03 0.03 0.04 0.02 0.01 0.01 0.01 0.02 0.02 0.02 0.02 0.02 0.02 0.02 0.01 0.00 0.01 0.02 0.05 0.08 0.07 0.06 0.05 0.04 0.05 0.07 0.07 0.07 0.08 0.09 0.09 0.09 0.07 0.07 0.07 0.08 0.10 0.11 0.08 0.05 0.05 0.05 0.06 0.05
0.00 0.00 0.00 0.01 0.01 0.02 0.03 0.03 0.02 0.01 0.01 0.02 0.03 0.03 0.03 0.04 0.04 0.03 0.02 0.01 0.01 0.01 0.02 0.04 0.07 0.06 0.04 0.03 0.05 0.06 0.08 0.08 0.07 0.10 0.13 0.11 0.09 0.09 0.09 0.07 0.08 0.09 0.09 0.06 0.06 0.06 0.05 0.06 0.06
0.00 0.00 0.00 0.01 0.00 0.01 0.01 0.01 0.01 0.01 0.02 0.03 0.03 0.04 0.04 0.05 0.04 0.03 0.02 0.01 0.01 0.01 0.01 0.03 0.06 0.08 0.07 0.06 0.06 0.07 0.09 0.09 0.07 0.09 0.10 0.06 0.05 0.08 0.09 0.11 0.13 0.09 0.06 0.05 0.05 0.06 0.05 0.06 0.05
0.00 0.00 0.01 0.00 0.00 0.01 0.01 0.01 0.01 0.02 0.03 0.03 0.02 0.03 0.04 0.04 0.04 0.03 0.02 0.02 0.02 0.02 0.01 0.02 0.03 0.04 0.04 0.05 0.06 0.08 0.11 0.10 0.09 0.08 0.07 0.05 0.06 0.06 0.07 0.09 0.08 0.06 0.04 0.04 0.04 0.04 0.04 0.03 0.02
0.00 0.00 0.00 0.00 0.00 0.01 0.01 0.01 0.02 0.02 0.03 0.03 0.03 0.03 0.03 0.03 0.04 0.03 0.02 0.02 0.02 0.02 0.02 0.02 0.03 0.04 0.04 0.04 0.04 0.06 0.09 0.07 0.06 0.05 0.04 0.03 0.04 0.04 0.05 0.05 0.06 0.07 0.08 0.07 0.07 0.05 0.04 0.02 0.01
0.00 0.00 0.00 0.00 0.00 0.01 0.01 0.01 0.01 0.02 0.03 0.03 0.04 0.04 0.04 0.02 0.03 0.02 0.01 0.01 0.01 0.02 0.02 0.02 0.02 0.02 0.02 0.03 0.03 0.04 0.05 0.04 0.03 0.03 0.03 0.02 0.03 0.04 0.04 0.03 0.04 0.05 0.05 0.07 0.07 0.05 0.03 0.02 0.02
0.00 0.00 0.00 0.00 0.00 0.00 0.00 0.01 0.02 0.02 0.03 0.03 0.03 0.05 0.04 0.02 0.02 0.01 0.00 0.01 0.01 0.01 0.01 0.01 0.01 0.01 0.02 0.02 0.03 0.04 0.03 0.03 0.02 0.02 0.03 0.02 0.02 0.02 0.03 0.02 0.03 0.04 0.04 0.05 0.04 0.02 0.02 0.02 0.01
0.00 0.00 0.00 0.00 0.00 0.00 0.00 0.01 0.01 0.02 0.02 0.02 0.03 0.03 0.02 0.01 0.02 0.01 0.00 0.00 0.00 0.01 0.01 0.01 0.01 0.01 0.01 0.02 0.03 0.03 0.02 0.02 0.01 0.02 0.03 0.03 0.03 0.03 0.03 0.02 0.01 0.01 0.03 0.04 0.03 0.02 0.01 0.01 0.01
0.00 0.00 0.00 0.00 0.00 0.00 0.00 0.00 0.00 0.01 0.02 0.01 0.02 0.04 0.04 0.04 0.03 0.02 0.01 0.01 0.00 0.00 0.00 0.00 0.01 0.01 0.01 0.01 0.01 0.02 0.02 0.02 0.02 0.02 0.01 0.02 0.02 0.02 0.04 0.03 0.01 0.02 0.01 0.02 0.01 0.01 0.01 0.01 0.01
0.00 0.00 0.00 0.00 0.00 0.00 0.00 0.00 0.00 0.00 0.01 0.01 0.01 0.02 0.05 0.06 0.06 0.05 0.02 0.01 0.01 0.00 0.00 0.00 0.01 0.01 0.01 0.01 0.01 0.01 0.02 0.02 0.02 0.01 0.02 0.02 0.02 0.02 0.02 0.02 0.02 0.02 0.01 0.01 0.01 0.01 0.01 0.01 0.00
0.00 0.00 0.00 0.00 0.00 0.00 0.00 0.00 0.00 0.00 0.00 0.00 0.00 0.01 0.03 0.04 0.05 0.05 0.03 0.02 0.01 0.01 0.00 0.00 0.00 0.01 0.01 0.01 0.02 0.02 0.02 0.02 0.02 0.02 0.01 0.01 0.02 0.02 0.02 0.02 0.02 0.02 0.01 0.01 0.01 0.01 0.01 0.02 0.01
0.00 0.00 0.00 0.00 0.00 0.00 0.00 0.00 0.00 0.00 0.00 0.00 0.01 0.01 0.01 0.01 0.02 0.02 0.03 0.03 0.02 0.02 0.02 0.00 0.00 0.00 0.00 0.01 0.01 0.02 0.02 0.02 0.02 0.02 0.02 0.01 0.01 0.01 0.01 0.01 0.02 0.02 0.01 0.01 0.01 0.02 0.02 0.02 0.01
0.00 0.00 0.00 0.00 0.01 0.01 0.00 0.00 0.00 0.00 0.00 0.00 0.01 0.01 0.01 0.00 0.00 0.00 0.00 0.02 0.03 0.02 0.02 0.01 0.01 0.00 0.00 0.01 0.01 0.01 0.01 0.01 0.02 0.02 0.02 0.02 0.02 0.02 0.01 0.00 0.01 0.02 0.02 0.02 0.02 0.02 0.02 0.02 0.02
0.00 0.01 0.00 0.00 0.01 0.01 0.00 0.01 0.00 0.00 0.00 0.00 0.00 0.00 0.00 0.00 0.00 0.00 0.00 0.01 0.01 0.01 0.02 0.01 0.01 0.00 0.00 0.00 0.01 0.01 0.01 0.02 0.02 0.02 0.01 0.01 0.02 0.03 0.02 0.01 0.01 0.01 0.02 0.02 0.02 0.02 0.02 0.02 0.02
0.01 0.01 0.01 0.01 0.01 0.01 0.01 0.02 0.01 0.00 0.01 0.01 0.01 0.01 0.00 0.00 0.00 0.00 0.00 0.00 0.00 0.01 0.00 0.00 0.00 0.00 0.00 0.01 0.01 0.01 0.02 0.01 0.01 0.02 0.01 0.01 0.02 0.02 0.03 0.03 0.02 0.01 0.01 0.02 0.02 0.02 0.02 0.02 0.02
0.01 0.01 0.01 0.01 0.01 0.01 0.02 0.03 0.02 0.01 0.01 0.02 0.03 0.01 0.01 0.00 0.00 0.00 0.00 0.00 0.00 0.01 0.00 0.00 0.00 0.00 0.01 0.01 0.02 0.02 0.02 0.01 0.02 0.02 0.01 0.01 0.02 0.02 0.03 0.03 0.03 0.02 0.01 0.02 0.02 0.02 0.02 0.02 0.02
0.01 0.01 0.01 0.01 0.01 0.01 0.02 0.02 0.02 0.02 0.02 0.01 0.01 0.01 0.01 0.02 0.01 0.00 0.00 0.00 0.01 0.01 0.03 0.02 0.01 0.01 0.01 0.01 0.01 0.01 0.01 0.01 0.02 0.01 0.01 0.02 0.02 0.02 0.02 0.02 0.02 0.02 0.02 0.01 0.01 0.01 0.02 0.02 0.01
0.00 0.01 0.01 0.01 0.00 0.01 0.02 0.02 0.02 0.02 0.02 0.01 0.01 0.01 0.01 0.01 0.02 0.00 0.00 0.01 0.01 0.02 0.02 0.03 0.03 0.02 0.01 0.01 0.01 0.01 0.01 0.02 0.02 0.01 0.01 0.01 0.02 0.03 0.03 0.02 0.02 0.02 0.02 0.02 0.01 0.02 0.02 0.02 0.02
0.00 0.00 0.00 0.00 0.01 0.01 0.01 0.02 0.01 0.02 0.03 0.02 0.01 0.01 0.01 0.01 0.01 0.00 0.01 0.01 0.00 0.01 0.01 0.01 0.01 0.01 0.01 0.01 0.01 0.01 0.02 0.04 0.02 0.01 0.01 0.01 0.02 0.03 0.03 0.03 0.04 0.03 0.02 0.02 0.02 0.02 0.03 0.04 0.03
0.00 0.00 0.00 0.00 0.01 0.01 0.01 0.03 0.04 0.03 0.02 0.01 0.01 0.01 0.00 0.01 0.00 0.00 0.00 0.00 0.01 0.00 0.01 0.01 0.01 0.00 0.01 0.02 0.01 0.01 0.02 0.03 0.01 0.01 0.01 0.01 0.01 0.03 0.02 0.02 0.03 0.04 0.04 0.02 0.03 0.04 0.05 0.05 0.03
0.00 0.00 0.00 0.00 0.01 0.01 0.02 0.04 0.07 0.04 0.02 0.01 0.01 0.01 0.00 0.00 0.00 0.00 0.01 0.01 0.00 0.00 0.01 0.01 0.01 0.01 0.02 0.02 0.01 0.00 0.01 0.03 0.02 0.01 0.02 0.02 0.01 0.02 0.03 0.03 0.03 0.03 0.04 0.03 0.03 0.04 0.05 0.04 0.02
0.00 0.00 0.00 0.00 0.01 0.02 0.02 0.03 0.04 0.03 0.02 0.02 0.01 0.00 0.00 0.00 0.00 0.00 0.01 0.01 0.01 0.01 0.01 0.01 0.02 0.02 0.02 0.02 0.02 0.01 0.01 0.02 0.01 0.01 0.01 0.01 0.02 0.02 0.03 0.04 0.03 0.03 0.03 0.03 0.02 0.03 0.03 0.03 0.02
0.00 0.01 0.01 0.01 0.01 0.02 0.01 0.01 0.02 0.02 0.01 0.01 0.00 0.00 0.00 0.00 0.00 0.01 0.01 0.00 0.01 0.01 0.01 0.01 0.02 0.02 0.02 0.01 0.01 0.01 0.01 0.02 0.02 0.02 0.01 0.02 0.02 0.02 0.02 0.04 0.05 0.04 0.03 0.03 0.02 0.02 0.02 0.02 0.02
0.00 0.01 0.01 0.01 0.01 0.01 0.01 0.01 0.01 0.01 0.01 0.01 0.00 0.00 0.00 0.00 0.00 0.00 0.00 0.01 0.01 0.01 0.02 0.02 0.02 0.02 0.01 0.01 0.01 0.02 0.02 0.02 0.02 0.02 0.01 0.02 0.02 0.02 0.02 0.04 0.05 0.05 0.04 0.03 0.02 0.02 0.01 0.01 0.01
0.01 0.01 0.01 0.01 0.01 0.00 0.00 0.01 0.01 0.01 0.00 0.00 0.01 0.00 0.00 0.00 0.00 0.00 0.00 0.00 0.01 0.01 0.01 0.02 0.02 0.02 0.02 0.01 0.01 0.02 0.02 0.01 0.01 0.01 0.01 0.02 0.01 0.01 0.02 0.03 0.04 0.05 0.05 0.04 0.04 0.03 0.02 0.02 0.02
0.01 0.01 0.01 0.01 0.01 0.01 0.00 0.00 0.01 0.01 0.01 0.01 0.00 0.00 0.00 0.01 0.01 0.01 0.01 0.01 0.01 0.01 0.01 0.01 0.02 0.02 0.02 0.02 0.02 0.01 0.01 0.01 0.01 0.01 0.01 0.02 0.01 0.01 0.02 0.03 0.04 0.05 0.05 0.04 0.05 0.04 0.03 0.03 0.03
0.01 0.01 0.01 0.01 0.01 0.01 0.01 0.00 0.00 0.00 0.01 0.01 0.01 0.01 0.01 0.01 0.01 0.01 0.01 0.01 0.01 0.01 0.01 0.01 0.01 0.01 0.01 0.01 0.01 0.01 0.01 0.01 0.01 0.01 0.02 0.02 0.01 0.01 0.02 0.03 0.03 0.05 0.06 0.05 0.04 0.03 0.03 0.03 0.03
0.00 0.01 0.01 0.01 0.02 0.01 0.01 0.01 0.00 0.00 0.00 0.01 0.01 0.01 0.01 0.01 0.01 0.01 0.02 0.02 0.02 0.01 0.02 0.02 0.01 0.01 0.01 0.00 0.01 0.01 0.01 0.01 0.00 0.01 0.01 0.01 0.01 0.01 0.01 0.02 0.02 0.03 0.04 0.04 0.03 0.02 0.02 0.02 0.02
MSLP
1007.04 1007.85 1009.05 1010.55 1012.19 1013.79 1015.20 1016.31 1017.06 1017.46 1017.60 1017.56 1017.47 1017.39 1017.38 1017.43 1017.51 1017.57 1017.55 1017.45 1017.25 1017.02 1016.78 1016.59 1016.49 1016.49 1016.55 1016.65 1016.74 1016.78 1016.77 1016.72 1016.67 1016.64 1016.66 1016.74 1016.86 1016.99 1017.06 1017.05 1016.94 1016.74 1016.47 1016.20 1015.94 1015.76 1015.63 1015.56 1015.50
1007.87 1008.95 1010.37 1011.99 1013.65 1015.15 1016.36 1017.19 1017.63 1017.73 1017.61 1017.40 1017.21 1017.13 1017.17 1017.32 1017.50 1017.66 1017.72 1017.67 1017.51 1017.29 1017.05 1016.87 1016.78 1016.79 1016.87 1016.98 1017.08 1017.14 1017.15 1017.11 1017.06 1017.02 1017.03 1017.07 1017.14 1017.20 1017.20 1017.12 1016.95 1016.70 1016.42 1016.13 1015.90 1015.73 1015.62 1015.55 1015.48
1008.85 1010.18 1011.78 1013.48 1015.09 1016.45 1017.43 1017.98 1018.13 1017.98 1017.66 1017.32 1017.09 1017.01 1017.11 1017.32 1017.58 1017.79 1017.89 1017.85 1017.69 1017.46 1017.23 1017.05 1016.98 1017.01 1017.13 1017.28 1017.42 1017.51 1017.54 1017.52 1017.47 1017.42 1017.39 1017.39 1017.39 1017.37 1017.29 1017.14 1016.92 1016.64 1016.35 1016.08 1015.86 1015.72 1015.62 1015.56 1015.47
1009.88 1011.42 1013.13 1014.84 1016.37 1017.56 1018.32 1018.63 1018.56 1018.22 1017.78 1017.38 1017.13 1017.08 1017.21 1017.46 1017.74 1017.94 1018.02 1017.95 1017.76 1017.51 1017.27 1017.11 1017.07 1017.15 1017.32 1017.53 1017.72 1017.85 1017.91 1017.91 1017.85 1017.78 1017.72 1017.65 1017.59 1017.49 1017.35 1017.15 1016.89 1016.60 1016.32 1016.07 1015.88 1015.76 1015.68 1015.61 1015.51
1010.88 1012.54 1014.30 1015.97 1017.38 1018.40 1018.98 1019.11 1018.90 1018.46 1017.98 1017.58 1017.36 1017.34 1017.49 1017.73 1017.96 1018.11 1018.11 1017.97 1017.72 1017.44 1017.21 1017.08 1017.09 1017.23 1017.45 1017.72 1017.96 1018.13 1018.21 1018.21 1018.15 1018.06 1017.95 1017.84 1017.72 1017.58 1017.40 1017.17 1016.90 1016.62 1016.35 1016.13 1015.97 1015.86 1015.78 1015.70 1015.58
1011.80 1013.51 1015.23 1016.81 1018.08 1018.95 1019.38 1019.41 1019.13 1018.70 1018.26 1017.92 1017.76 1017.77 1017.92 1018.11 1018.27 1018.31 1018.20 1017.97 1017.66 1017.35 1017.11 1017.02 1017.08 1017.27 1017.56 1017.86 1018.13 1018.32 1018.41 1018.40 1018.33 1018.21 1018.08 1017.94 1017.79 1017.63 1017.43 1017.20 1016.95 1016.69 1016.45 1016.25 1016.10 1015.99 1015.91 1015.80 1015.65
1012.65 1014.31 1015.93 1017.37 1018.48 1019.22 1019.56 1019.55 1019.31 1018.96 1018.63 1018.40 1018.32 1018.37 1018.50 1018.62 1018.67 1018.58 1018.36 1018.02 1017.65 1017.32 1017.09 1017.03 1017.13 1017.37 1017.68 1018.00 1018.27 1018.44 1018.51 1018.48 1018.39 1018.25 1018.11 1017.96 1017.81 1017.65 1017.47 1017.26 1017.03 1016.80 1016.58 1016.40 1016.26 1016.14 1016.02 1015.88 1015.70
1013.46 1015.01 1016.48 1017.74 1018.70 1019.32 1019.62 1019.64 1019.49 1019.27 1019.09 1018.99 1019.01 1019.10 1019.20 1019.25 1019.18 1018.97 1018.63 1018.21 1017.79 1017.44 1017.23 1017.19 1017.32 1017.56 1017.87 1018.16 1018.39 1018.52 1018.54 1018.48 1018.36 1018.22 1018.08 1017.94 1017.81 1017.67 1017.52 1017.34 1017.14 1016.93 1016.73 1016.55 1016.39 1016.25 1016.09 1015.91 1015.69
1014.30 1015.68 1016.96 1018.03 1018.84 1019.38 1019.65 1019.74 1019.72 1019.66 1019.65 1019.70 1019.81 1019.93 1020.00 1019.97 1019.80 1019.49 1019.06 1018.58 1018.13 1017.78 1017.58 1017.55 1017.67 1017.90 1018.15 1018.38 1018.54 1018.59 1018.56 1018.46 1018.32 1018.17 1018.04 1017.93 1017.83 1017.73 1017.60 1017.45 1017.27 1017.08 1016.88 1016.68 1016.49 1016.31 1016.11 1015.88 1015.62
1015.18 1016.38 1017.45 1018.34 1019.02 1019.48 1019.77 1019.93 1020.05 1020.16 1020.30 1020.48 1020.66 1020.80 1020.84 1020.75 1020.50 1020.11 1019.62 1019.12 1018.67 1018.33 1018.14 1018.11 1018.20 1018.36 1018.54 1018.68 1018.74 1018.72 1018.62 1018.48 1018.33 1018.19 1018.08 1018.00 1017.93 1017.85 1017.75 1017.61 1017.43 1017.23 1017.01 1016.79 1016.56 1016.33 1016.08 1015.80 1015.51
1016.11 1017.13 1018.01 1018.73 1019.29 1019.70 1020.01 1020.25 1020.49 1020.74 1021.01 1021.28 1021.51 1021.65 1021.67 1021.52 1021.21 1020.78 1020.28 1019.78 1019.34 1019.02 1018.84 1018.79 1018.84 1018.93 1019.02 1019.05 1019.02 1018.92 1018.77 1018.61 1018.45 1018.34 1018.26 1018.20 1018.15 1018.09 1017.99 1017.84 1017.64 1017.41 1017.16 1016.90 1016.63 1016.34 1016.05 1015.73 1015.40
1017.06 1017.91 1018.63 1019.21 1019.67 1020.05 1020.37 1020.69 1021.01 1021.36 1021.72 1022.04 1022.29 1022.42 1022.40 1022.22 1021.89 1021.44 1020.95 1020.48 1020.07 1019.78 1019.60 1019.52 1019.52 1019.53 1019.53 1019.48 1019.37 1019.22 1019.04 1018.88 1018.75 1018.66 1018.60 1018.57 1018.53 1018.46 1018.33 1018.16 1017.92 1017.65 1017.36 1017.05 1016.73 1016.40 1016.06 1015.70 1015.33
1017.96 1018.68 1019.26 1019.74 1020.13 1020.48 1020.83 1021.19 1021.57 1021.97 1022.36 1022.70 1022.94 1023.05 1023.00 1022.79 1022.46 1022.03 1021.57 1021.14 1020.77 1020.50 1020.32 1020.22 1020.17 1020.11 1020.04 1019.93 1019.78 1019.61 1019.45 1019.31 1019.22 1019.16 1019.14 1019.11 1019.06 1018.96 1018.80 1018.57 1018.29 1017.97 1017.63 1017.28 1016.92 1016.56 1016.17 1015.77 1015.36
1018.74 1019.36 1019.85 1020.25 1020.60 1020.94 1021.30 1021.68 1022.09 1022.50 1022.89 1023.21 1023.42 1023.49 1023.42 1023.21 1022.89 1022.50 1022.09 1021.71 1021.38 1021.13 1020.96 1020.83 1020.73 1020.63 1020.52 1020.39 1020.25 1020.11 1019.99 1019.90 1019.86 1019.84 1019.83 1019.80 1019.72 1019.57 1019.36 1019.08 1018.75 1018.38 1018.00 1017.62 1017.23 1016.84 1016.42 1015.98 1015.53
1019.36 1019.89 1020.32 1020.68 1021.01 1021.35 1021.70 1022.09 1022.49 1022.89 1023.25 1023.53 1023.70 1023.75 1023.67 1023.48 1023.20 1022.86 1022.51 1022.18 1021.89 1021.66 1021.47 1021.33 1021.20 1021.08 1020.97 1020.85 1020.75 1020.67 1020.62 1020.60 1020.61 1020.62 1020.62 1020.57 1020.45 1020.26 1019.99 1019.65 1019.27 1018.88 1018.47 1018.07 1017.66 1017.24 1016.80 1016.33 1015.83
1019.79 1020.26 1020.65 1020.98 1021.30 1021.64 1021.99 1022.36 1022.74 1023.10 1023.42 1023.66 1023.80 1023.84 1023.78 1023.63 1023.40 1023.14 1022.86 1022.58 1022.33 1022.11 1021.92 1021.75 1021.61 1021.49 1021.40 1021.32 1021.28 1021.28 1021.31 1021.36 1021.42 1021.45 1021.44 1021.36 1021.20 1020.95 1020.63 1020.25 1019.85 1019.43 1019.02 1018.62 1018.21 1017.78 1017.32 1016.82 1016.28
1020.03 1020.45 1020.81 1021.14 1021.46 1021.78 1022.12 1022.47 1022.81 1023.12 1023.39 1023.59 1023.72 1023.78 1023.77 1023.69 1023.55 1023.37 1023.17 1022.96 1022.74 1022.53 1022.33 1022.16 1022.01 1021.90 1021.84 1021.82 1021.85 1021.92 1022.02 1022.13 1022.22 1022.26 1022.23 1022.11 1021.90 1021.61 1021.25 1020.86 1020.44 1020.03 1019.64 1019.24 1018.84 1018.41 1017.95 1017.43 1016.87
1020.12 1020.51 1020.84 1021.16 1021.48 1021.79 1022.10 1022.41 1022.69 1022.94 1023.16 1023.34 1023.48 1023.59 1023.65 1023.67 1023.66 1023.60 1023.49 1023.35 1023.17 1022.97 1022.77 1022.59 1022.44 1022.35 1022.32 1022.35 1022.44 1022.58 1022.73 1022.87 1022.97 1022.99 1022.93 1022.77 1022.53 1022.20 1021.84 1021.44 1021.04 1020.66 1020.29 1019.92 1019.55 1019.13 1018.67 1018.15 1017.58
1020.10 1020.46 1020.78 1021.10 1021.40 1021.69 1021.95 1022.19 1022.40 1022.58 1022.75 1022.91 1023.08 1023.26 1023.43 1023.59 1023.72 1023.80 1023.81 1023.75 1023.63 1023.46 1023.26 1023.07 1022.92 1022.84 1022.84 1022.91 1023.04 1023.22 1023.40 1023.54 1023.63 1023.63 1023.53 1023.34 1023.07 1022.73 1022.37 1022.00 1021.64 1021.30 1020.98 1020.65 1020.30 1019.91 1019.47 1018.97 1018.42
1020.02 1020.35 1020.68 1020.99 1021.27 1021.51 1021.71 1021.85 1021.96 1022.06 1022.17 1022.32 1022.52 1022.78 1023.09 1023.41 1023.71 1023.95 1024.10 1024.15 1024.10 1023.96 1023.78 1023.60 1023.45 1023.38 1023.39 1023.48 1023.64 1023.82 1024.00 1024.14 1024.20 1024.17 1024.04 1023.82 1023.54 1023.22 1022.88 1022.56 1022.25 1021.96 1021.69 1021.41 1021.10 1020.74 1020.34 1019.87 1019.36
1019.91 1020.25 1020.58 1020.88 1021.13 1021.31 1021.41 1021.44 1021.42 1021.41 1021.44 1021.57 1021.80 1022.16 1022.60 1023.09 1023.58 1024.00 1024.31 1024.48 1024.52 1024.44 1024.30 1024.13 1023.99 1023.92 1023.94 1024.04 1024.20 1024.38 1024.55 1024.66 1024.69 1024.63 1024.48 1024.25 1023.98 1023.69 1023.40 1023.13 1022.88 1022.65 1022.42 1022.18 1021.91 1021.60 1021.24 1020.83 1020.38
1019.80 1020.16 1020.51 1020.81 1021.02 1021.12 1021.10 1020.99 1020.83 1020.68 1020.62 1020.70 1020.96 1021.39 1021.96 1022.63 1023.30 1023.90 1024.38 1024.69 1024.84 1024.84 1024.74 1024.61 1024.49 1024.43 1024.45 1024.55 1024.71 1024.88 1025.03 1025.12 1025.13 1025.05 1024.89 1024.68 1024.44 1024.18 1023.95 1023.73 1023.54 1023.35 1023.17 1022.97 1022.73 1022.46 1022.15 1021.81 1021.44
1019.69 1020.10 1020.49 1020.79 1020.96 1020.97 1020.82 1020.55 1020.23 1019.93 1019.76 1019.78 1020.04 1020.53 1021.21 1022.03 1022.87 1023.65 1024.29 1024.75 1025.01 1025.10 1025.07 1024.98 1024.90 1024.86 1024.90 1025.00 1025.15 1025.32 1025.46 1025.54 1025.54 1025.46 1025.32 1025.13 1024.93 1024.72 1024.54 1024.37 1024.22 1024.07 1023.92 1023.74 1023.53 1023.30 1023.04 1022.76 1022.48
1019.59 1020.06 1020.49 1020.80 1020.93 1020.85 1020.58 1020.15 1019.67 1019.22 1018.93 1018.88 1019.11 1019.64 1020.41 1021.34 1022.33 1023.26 1024.05 1024.65 1025.03 1025.22 1025.27 1025.24 1025.20 1025.19 1025.25 1025.37 1025.53 1025.70 1025.84 1025.93 1025.94 1025.88 1025.77 1025.62 1025.46 1025.31 1025.17 1025.04 1024.92 1024.79 1024.64 1024.47 1024.28 1024.08 1023.86 1023.65 1023.44
1019.47 1020.02 1020.49 1020.81 1020.91 1020.75 1020.36 1019.80 1019.17 1018.59 1018.19 1018.06 1018.27 1018.81 1019.63 1020.65 1021.74 1022.79 1023.71 1024.42 1024.91 1025.20 1025.33 1025.37 1025.38 1025.42 1025.51 1025.66 1025.84 1026.03 1026.19 1026.30 1026.34 1026.32 1026.25 1026.15 1026.03 1025.92 1025.81 1025.71 1025.59 1025.47 1025.32 1025.15 1024.96 1024.77 1024.59 1024.43 1024.29
1019.33 1019.93 1020.44 1020.77 1020.84 1020.62 1020.15 1019.48 1018.74 1018.06 1017.57 1017.38 1017.56 1018.09 1018.94 1020.00 1021.17 1022.30 1023.30 1024.11 1024.69 1025.06 1025.27 1025.39 1025.46 1025.56 1025.69 1025.88 1026.09 1026.31 1026.50 1026.64 1026.72 1026.75 1026.72 1026.67 1026.59 1026.52 1026.43 1026.34 1026.23 1026.09 1025.93 1025.75 1025.56 1025.39 1025.23 1025.11 1025.01
1019.12 1019.76 1020.29 1020.61 1020.65 1020.40 1019.87 1019.14 1018.34 1017.60 1017.07 1016.85 1017.00 1017.52 1018.37 1019.45 1020.64 1021.82 1022.87 1023.74 1024.39 1024.84 1025.13 1025.31 1025.46 1025.61 1025.80 1026.03 1026.28 1026.53 1026.76 1026.95 1027.07 1027.14 1027.16 1027.15 1027.12 1027.07 1027.01 1026.92 1026.80 1026.66 1026.48 1026.29 1026.10 1025.93 1025.79 1025.69 1025.62
1018.84 1019.47 1019.98 1020.28 1020.30 1020.02 1019.47 1018.73 1017.91 1017.17 1016.64 1016.41 1016.55 1017.07 1017.91 1018.98 1020.16 1021.34 1022.41 1023.32 1024.02 1024.53 1024.89 1025.15 1025.37 1025.59 1025.83 1026.11 1026.41 1026.70 1026.97 1027.19 1027.35 1027.47 1027.54 1027.57 1027.57 1027.55 1027.51 1027.43 1027.31 1027.17 1026.99 1026.79 1026.60 1026.43 1026.30 1026.22 1026.17
1018.46 1019.03 1019.48 1019.73 1019.72 1019.42 1018.88 1018.16 1017.39 1016.69 1016.20 1016.00 1016.15 1016.66 1017.47 1018.51 1019.66 1020.82 1021.89 1022.80 1023.54 1024.11 1024.54 1024.88 1025.18 1025.47 1025.78 1026.11 1026.45 1026.79 1027.09 1027.35 1027.55 1027.70 1027.81 1027.89 1027.93 1027.94 1027.92 1027.87 1027.77 1027.63 1027.46 1027.28 1027.10 1026.94 1026.82 1026.74 1026.70
1017.98 1018.44 1018.80 1018.97 1018.91 1018.60 1018.08 1017.42 1016.72 1016.10 1015.67 1015.52 1015.69 1016.19 1016.97 1017.96 1019.06 1020.18 1021.22 1022.14 1022.91 1023.53 1024.04 1024.47 1024.86 1025.24 1025.62 1026.01 1026.40 1026.77 1027.11 1027.40 1027.64 1027.84 1027.99 1028.11 1028.19 1028.25 1028.27 1028.26 1028.19 1028.09 1027.95 1027.78 1027.62 1027.48 1027.37 1027.30 1027.25
Thickness
5799 5802 5803 5795 5780 5764 5750 5753 5760 5759 5761 5767 5769 5767 5761 5757 5752 5745 5760 5768 5770 5770 5769 5767 5766 5766 5767 5768 5769 5769 5770 5770 5770 5771 5771 5771 5771 5770 5771 5771 5772 5773 5772 5771 5770 5769 5769 5769 5768
5801 5801 5795 5785 5767 5749 5743 5754 5755 5758 5763 5768 5767 5766 5762 5756 5761 5760 5762 5766 5768 5768 5768 5766 5763 5764 5765 5765 5766 5767 5767 5767 5768 5769 5770 5769 5768 5768 5768 5768 5769 5770 5770 5768 5767 5767 5766 5766 5765
5799 5798 5785 5772 5758 5749 5744 5753 5756 5760 5765 5765 5762 5764 5758 5752 5757 5759 5762 5765 5766 5766 5765 5763 5761 5762 5762 5763 5763 5764 5764 5764 5765 5766 5767 5766 5765 5765 5765 5765 5766 5766 5766 5765 5764 5763 5763 5763 5762
5796 5788 5780 5763 5747 5751 5753 5756 5759 5758 5760 5764 5762 5755 5755 5756 5758 5761 5762 5764 5764 5764 5763 5760 5759 5759 5760 5760 5761 5761 5761 5761 5761 5762 5762 5762 5761 5761 5761 5762 5762 5762 5762 5761 5760 5760 5760 5760 5759
5793 5779 5761 5749 5745 5750 5757 5760 5761 5756 5755 5758 5759 5749 5746 5753 5759 5760 5761 5762 5762 5762 5761 5759 5756 5757 5757 5758 5758 5758 5757 5757 5757 5757 5757 5757 5757 5757 5757 5758 5758 5757 5757 5757 5756 5756 5756 5756 5755
5779 5772 5751 5740 5741 5748 5755 5759 5758 5755 5753 5755 5753 5747 5743 5751 5754 5756 5758 5759 5759 5758 5758 5757 5754 5754 5755 5755 5755 5754 5754 5754 5753 5753 5753 5753 5754 5754 5753 5754 5754 5753 5753 5753 5753 5752 5752 5751 5751
5771 5761 5747 5743 5739 5741 5748 5756 5754 5751 5748 5749 5753 5744 5742 5747 5751 5754 5755 5755 5756 5756 5756 5756 5756 5754 5753 5752 5751 5751 5750 5750 5750 5749 5749 5749 5749 5749 5750 5750 5750 5750 5749 5749 5748 5748 5747 5747 5747
5776 5761 5746 5743 5738 5737 5748 5752 5752 5750 5746 5752 5752 5741 5737 5744 5750 5752 5752 5752 5752 5753 5753 5753 5753 5753 5754 5752 5748 5747 5747 5746 5746 5745 5745 5745 5746 5746 5746 5746 5745 5745 5745 5745 5744 5744 5743 5743 5743
5776 5755 5740 5740 5738 5739 5747 5746 5748 5752 5748 5747 5748 5744 5743 5747 5748 5748 5747 5748 5748 5748 5750 5750 5751 5751 5751 5749 5746 5746 5744 5743 5744 5743 5742 5744 5746 5746 5744 5742 5741 5741 5741 5740 5740 5739 5739 5739 5739
5765 5746 5740 5746 5748 5744 5744 5744 5745 5744 5741 5740 5740 5741 5744 5744 5743 5742 5741 5741 5742 5743 5746 5748 5748 5748 5748 5746 5745 5744 5744 5742 5742 5742 5742 5743 5743 5741 5740 5737 5737 5736 5736 5736 5735 5736 5736 5738 5738
5757 5744 5744 5746 5749 5748 5743 5742 5746 5741 5733 5737 5736 5737 5740 5740 5740 5738 5738 5739 5739 5741 5741 5743 5745 5744 5744 5743 5742 5741 5740 5739 5739 5739 5738 5738 5739 5738 5737 5736 5735 5735 5734 5735 5734 5735 5736 5736 5735
5749 5745 5747 5745 5746 5745 5742 5741 5738 5737 5736 5742 5742 5740 5738 5736 5736 5736 5736 5736 5737 5738 5738 5739 5740 5741 5740 5739 5738 5737 5737 5736 5736 5735 5735 5735 5735 5735 5734 5734 5733 5732 5732 5731 5732 5732 5732 5733 5732
5743 5740 5743 5744 5743 5742 5741 5737 5735 5733 5738 5741 5739 5736 5735 5735 5735 5735 5736 5735 5735 5734 5734 5735 5736 5737 5736 5735 5734 5734 5732 5732 5732 5729 5731 5731 5731 5731 5731 5731 5728 5729 5728 5728 5728 5729 5728 5728 5728
5741 5741 5740 5741 5740 5739 5734 5733 5732 5731 5736 5735 5733 5732 5733 5733 5732 5732 5732 5731 5732 5731 5732 5732 5732 5732 5732 5732 5731 5730 5728 5727 5727 5726 5726 5727 5727 5727 5726 5727 5725 5724 5724 5724 5724 5724 5723 5722 5722
5742 5735 5732 5734 5736 5735 5733 5723 5726 5731 5732 5729 5729 5729 5729 5730 5730 5729 5729 5729 5729 5729 5729 5728 5728 5728 5728 5727 5726 5725 5723 5723 5723 5722 5722 5722 5722 5722 5722 5722 5722 5720 5719 5720 5719 5720 5719 5718 5717
5736 5728 5720 5725 5731 5730 5725 5713 5724 5730 5727 5725 5726 5726 5725 5725 5727 5728 5728 5728 5728 5727 5727 5725 5724 5724 5723 5722 5721 5720 5720 5718 5718 5717 5717 5718 5718 5718 5717 5717 5716 5716 5715 5715 5714 5714 5713 5712 5712
5724 5717 5715 5718 5727 5727 5722 5713 5722 5727 5725 5723 5723 5724 5723 5723 5723 5725 5726 5725 5725 5724 5724 5722 5721 5720 5718 5717 5716 5715 5715 5713 5713 5712 5711 5712 5712 5713 5712 5711 5711 5711 5710 5710 5709 5709 5708 5707 5705
5713 5714 5711 5713 5721 5720 5715 5714 5719 5722 5721 5721 5721 5720 5720 5719 5720 5722 5722 5722 5721 5720 5720 5719 5717 5715 5714 5712 5712 5710 5709 5708 5707 5706 5705 5705 5706 5707 5707 5706 5707 5706 5706 5704 5704 5702 5701 5701 5700
5717 5711 5708 5712 5718 5714 5712 5712 5716 5719 5717 5716 5717 5717 5716 5716 5718 5718 5718 5718 5717 5715 5715 5714 5712 5710 5709 5708 5706 5704 5703 5702 5701 5700 5700 5700 5700 5701 5701 5702 5702 5701 5701 5700 5700 5698 5697 5695 5696
5712 5706 5705 5709 5713 5710 5708 5709 5715 5716 5713 5714 5714 5714 5714 5713 5713 5712 5713 5713 5712 5711 5710 5709 5708 5706 5705 5703 5703 5700 5699 5698 5697 5695 5694 5695 5695 5696 5696 5697 5697 5696 5695 5695 5694 5693 5692 5691 5691
5706 5703 5703 5701 5704 5707 5704 5703 5709 5712 5713 5712 5712 5712 5711 5710 5709 5708 5707 5707 5707 5706 5705 5704 5703 5701 5699 5698 5697 5696 5694 5693 5692 5690 5690 5690 5690 5690 5691 5691 5692 5691 5692 5690 5689 5688 5686 5685 5686
5698 5705 5702 5699 5696 5696 5697 5692 5705 5708 5706 5705 5706 5707 5707 5706 5706 5704 5703 5701 5701 5701 5701 5699 5698 5696 5695 5693 5691 5689 5687 5686 5686 5686 5686 5686 5685 5685 5685 5686 5686 5686 5686 5685 5684 5683 5682 5680 5680
5698 5700 5699 5696 5694 5691 5693 5689 5700 5704 5698 5700 5702 5702 5703 5703 5702 5699 5698 5696 5695 5695 5693 5693 5692 5690 5689 5687 5685 5683 5682 5681 5682 5681 5681 5681 5680 5680 5679 5679 5679 5680 5679 5679 5678 5678 5677 5676 5675
5696 5695 5693 5692 5690 5679 5688 5684 5689 5696 5694 5696 5698 5698 5698 5697 5696 5694 5693 5691 5688 5687 5686 5685 5685 5683 5682 5681 5680 5678 5676 5675 5675 5674 5674 5674 5674 5674 5674 5674 5674 5674 5674 5673 5673 5672 5672 5671 5670
5693 5687 5678 5676 5675 5679 5685 5680 5684 5694 5694 5693 5692 5692 5692 5691 5689 5687 5685 5683 5681 5680 5679 5679 5678 5677 5676 5674 5674 5673 5672 5670 5669 5668 5668 5668 5668 5668 5668 5668 5668 5668 5667 5667 5667 5667 5667 5666 5665
5688 5686 5673 5665 5669 5677 5678 5677 5686 5689 5689 5689 5688 5687 5685 5684 5682 5680 5678 5676 5674 5672 5671 5671 5671 5670 5670 5668 5668 5667 5666 5664 5663 5662 5662 5662 5662 5662 5662 5661 5661 5661 5661 5661 5660 5661 5661 5661 5660
5680 5681 5683 5674 5671 5666 5677 5682 5684 5684 5681 5680 5680 5679 5678 5676 5675 5673 5671 5669 5667 5665 5664 5664 5665 5664 5664 5663 5662 5660 5659 5657 5656 5656 5655 5655 5655 5655 5655 5654 5654 5654 5654 5654 5654 5653 5654 5653 5653
5679 5678 5672 5666 5657 5657 5668 5672 5675 5673 5672 5673 5672 5671 5670 5669 5668 5666 5664 5662 5661 5659 5658 5659 5658 5658 5657 5656 5655 5653 5652 5650 5649 5648 5647 5647 5647 5646 5646 5647 5647 5646 5646 5646 5646 5645 5644 5645 5644
5667 5665 5666 5666 5663 5655 5656 5668 5677 5673 5669 5667 5666 5665 5663 5662 5660 5657 5656 5655 5654 5653 5652 5651 5651 5651 5650 5649 5647 5645 5643 5642 5641 5640 5639 5638 5638 5638 5638 5638 5638 5637 5638 5637 5637 5637 5636 5637 5637
5666 5665 5661 5653 5654 5655 5653 5661 5673 5669 5666 5662 5660 5658 5656 5653 5651 5648 5648 5647 5646 5646 5645 5645 5644 5643 5642 5641 5639 5638 5636 5634 5633 5632 5630 5630 5630 5630 5630 5629 5629 5628 5628 5628 5627 5627 5627 5627 5628